This is the latest recevied weather packets stored in our database for station/object NI0Z. If no packets are shown the sender has not sent any weather packets the latest 1 day(s).
| Time | Temp. | Humidity | Pressure | Rain* | Wind** | Luminosity | Snow |
|---|---|---|---|---|---|---|---|
| 1778046627 | 7.78° C | 78% | - | 0 mm | 0 m/s | - | - |
| 1778046325 | 7.78° C | 78% | - | 0 mm | 0 m/s | - | - |
| 1778046020 | 7.78° C | 76% | - | 0 mm | 0.45 m/s, 306° | - | - |
| 1778045719 | 7.78° C | 76% | - | 0 mm | 0 m/s | - | - |
| 1778045417 | 7.78° C | 75% | - | 0 mm | 0.89 m/s, 302° | - | - |
| 1778045115 | 7.78° C | 74% | - | 0 mm | 0 m/s | - | - |
| 1778044812 | 7.78° C | 74% | - | 0 mm | 0.89 m/s, 278° | - | - |
| 1778044509 | 7.78° C | 76% | - | 0 mm | 0.89 m/s, 234° | - | - |
| 1778044206 | 8.33° C | 74% | - | 1.27 mm | 0.89 m/s, 280° | - | - |
| 1778043904 | 8.33° C | 73% | - | 1.27 mm | 1.34 m/s, 226° | - | - |
| 1778043601 | 8.33° C | 72% | - | 0 mm | 0.45 m/s, 318° | - | - |
| 1778043297 | 8.89° C | 71% | - | 0 mm | 0.45 m/s, 295° | - | - |
| 1778042994 | 8.89° C | 70% | - | 0 mm | 0.45 m/s, 298° | - | - |
| 1778042692 | 8.89° C | 70% | - | 0 mm | 0 m/s | - | - |
| 1778042388 | 8.89° C | 70% | - | 0 mm | 0.89 m/s, 232° | - | - |
| 1778042086 | 8.89° C | 69% | - | 0 mm | 0.45 m/s, 309° | - | - |
| 1778041783 | 9.44° C | 67% | - | 0 mm | 1.34 m/s, 294° | - | - |
| 1778041483 | 8.89° C | 67% | - | 0 mm | 1.34 m/s, 316° | - | - |
| 1778041180 | 8.89° C | 71% | - | 0 mm | 0.89 m/s, 230° | - | - |
| 1778040878 | 8.89° C | 76% | - | 0 mm | 2.24 m/s, 274° | - | - |
| 1778040575 | 8.89° C | 78% | - | 0 mm | 1.79 m/s, 237° | - | - |
| 1778040273 | 8.89° C | 82% | - | 0 mm | 0.45 m/s, 315° | - | - |
| 1778039968 | 8.89° C | 82% | - | 0 mm | 0 m/s | - | - |
| 1778039666 | 9.44° C | 83% | - | 0 mm | 0 m/s | - | - |
| 1778039362 | 9.44° C | 82% | - | 0 mm | 0 m/s | - | - |
* Rain latest hour (hover to see other rain measurements)
** Current wind speed in m/s (hover to see current wind gust speed)